STARLINK-34310, 64210

Orbit data source: Space-Track

STARLINK-34310, 64210 is a payload satellite owned by SpaceX/Seattle (US) in LEO that was launched on Sat, 31 May 2025 UTC via an FALCON 9 launch vehicle from the Air Force Western Test Range (AFWTR). Payload-class satellites include a variety of spacecraft equipped with specific instruments for various scientific and technological missions. These include communications satellites like Starlink; space stations such as the ISS; scientific satellites like the Hubble; Earth observation satellites from companies like Planet Labs, Umbra, and HawkEye 360; GPS; miniature CubeSats for education and research; and military/defense satellites.

Loading next visibility...
Identifier
64210, 2025-117H
Orbit
LEO
Last TLE update
18 hours ago
Origin
Manufacturer
SpaceX/Seattle
Mission
Operational Commercial Communications
Bus & Motor
STARLINK V2MO, Unknown motor
Mass
575 kg wet, ~530 kg dry
Launch date (UTC)
2025-05-31 (2 months ago)
Launch vehicle
FALCON 9
Launch site
Air Force Western Test Range (AFWTR)
Object type
Payload
Rocket body
Debris
Shape & HBR
Box + 1 Pan, 14.5 m
Radar Cross Section
41.120 m², Large (>1 m²)

Expand to show TLE details & history

TLE from 18 hours ago
0 STARLINK-34310
1 64210U 25117H   25198.97873487  .00053797  00000-0  13431-2 0  9992
2 64210  53.1602  52.4292 0001077  82.8855 277.2272 15.39672901  7534
Epoch: 2025-07-17T23:29Z
TLE epoch observation values (Epoch: 2025-07-17T23:29:22.692Z)
Latitude
-0.00006°
Longitude
124.04782°
Altitude
447.887 km
Speed
7.645 km/s
True Right ascension
03h 29m 42s
True Declination
0° 00' 00"
Sunlit
Object was in daylight at epoch
Visualization orbit readout
Latitude
-52.95355°
Longitude
21.21814°
Altitude
465.964 km
Speed
7.633 km/s
Apparent Right ascension
19h 30m 09s
Apparent Declination
-47° 33' 36"
Sunlit
Object is in full shadow
Visualization observer readout
Local Sidereal Time
06:32:51
Azimuth
228.738° WSW
Elevation
-77.167°
Doppler factor
1
Orbital elements
Apogee altitude
448.068 km
Perigee altitude
446.598 km
Semi-major axis
6,825.47 km
Eccentricity
0.00011
Inclination
53.1602°
RAAN
52.4292°
Arg. of periapsis
82.8855°
True anomaly
277.21496°
Mean anomaly
277.2272°
Eccentric anomaly
277.22108°
Mean motion
3.84897 °/min
Orbital period
93.53 mins
BSTAR
0.0013431
Loading maneuver chart data...
Loading SW <> Apogee altitude chart data...
Loading historical data...
Loading historical data...
Loading historical data...
Loading historical data...
Loading historical data...
Loading historical data...
Loading historical data...
|